Terminal Aerodrome Forecast
Issued by NWS Melbourne, FL

Home | Current Version | Previous Version | Text Only | Print | Product List | Glossary On
Versions: 1 2 3 4 5 6 7 8 9 10 11 12 13 14 15 16 17 18 19 20 21 22 23 24 25 26 27 28 29
000
FTUS42 KMLB 210500 RRA
TAFMCO
TAF
KMCO 210543Z 2106/2206 34005KT P6SM FEW010 BKN250
     FM210800 00000KT P6SM BKN250
     FM211400 VRB03KT P6SM FEW025 BKN250
     FM211800 18004KT P6SM VCSH SCT030 BKN100 PROB30 2119/2122 3SM
      SHRA BKN030
     FM220100 18003KT P6SM FEW035 BKN120=

USA.gov is the U.S. government's official web portal to all federal, state and local government web resources and services.